Tracking 19651 objects as of 23-Apr-2019
HD Live streaming from Space Station
objects crossing your sky now

CZ-4 DEB

Track CZ-4 DEB now!
10-day predictions


NORAD ID: 26162
Int'l Code: 1999-057AY
Perigee: 683.3 km
Apogee: 1,093.2 km
Inclination: 99.2 °
Period: 102.6 minutes
Semi major axis: 7259 km
RCS: 0.1866 m2 (medium)
Launch date: October 14, 1999
Source: People's Republic of China (PRC)
Launch site: Taiyaun Space Center, China (TSC)

Note: This is SATELLITE DEBRIS
aabbcc
Your satellite tracking list
Your tracking list is empty




NASA's NSSDC Master Catalog

Two Line Element Set (TLE):
1 26162U 99057AY  19111.92059412 +.00000245 +00000-0 +13042-3 0  9996
2 26162 099.1795 093.7226 0282327 052.6906 309.9636 14.03682002974967
Source of the keplerian elements: AFSPC